This is the latest recevied weather packets stored in our database for station/object K5IDL. If no packets are shown the sender has not sent any weather packets the latest 10 day(s).
| Time | Temp. | Humidity | Pressure | Rain* | Wind** | Luminosity | Snow |
|---|---|---|---|---|---|---|---|
| 1777822508 | 25° C | 44% | 1022.2 hPa | 0 mm | - | 518 W/m² | - |
| 1777822205 | 25° C | 44% | 1022 hPa | 0 mm | - | 503 W/m² | - |
| 1777821903 | 24.44° C | 45% | 1022.2 hPa | 0 mm | - | 489 W/m² | - |
| 1777821600 | 25.56° C | 43% | 1022 hPa | 0 mm | - | 476 W/m² | - |
| 1777821298 | 25° C | 44% | 1021.9 hPa | 0 mm | - | 462 W/m² | - |
| 1777820994 | 24.44° C | 46% | 1022 hPa | 0 mm | - | 447 W/m² | - |
| 1777820691 | 23.89° C | 45% | 1022 hPa | 0 mm | - | 432 W/m² | - |
| 1777820387 | 23.89° C | 45% | 1021.8 hPa | 0 mm | - | 419 W/m² | - |
| 1777820085 | 23.33° C | 46% | 1021.9 hPa | 0 mm | - | 402 W/m² | - |
| 1777819782 | 23.89° C | 46% | 1022 hPa | 0 mm | - | 389 W/m² | - |
| 1777819480 | 24.44° C | 46% | 1022 hPa | 0 mm | - | 373 W/m² | - |
| 1777819177 | 25° C | 46% | 1021.9 hPa | 0 mm | - | 360 W/m² | - |
| 1777818873 | 23.89° C | 45% | 1021.9 hPa | 0 mm | - | 345 W/m² | - |
| 1777818569 | 23.33° C | 45% | 1022.2 hPa | 0 mm | - | 329 W/m² | - |
| 1777818267 | 23.33° C | 47% | 1021.9 hPa | 0 mm | - | 313 W/m² | - |
| 1777817962 | 22.78° C | 49% | 1021.7 hPa | 0 mm | - | 308 W/m² | - |
| 1777817660 | 22.78° C | 48% | 1021.8 hPa | 0 mm | - | 284 W/m² | - |
| 1777817357 | 22.78° C | 49% | 1022 hPa | 0 mm | - | 269 W/m² | - |
| 1777817054 | 22.78° C | 50% | 1021.9 hPa | 0 mm | - | 255 W/m² | - |
| 1777816749 | 21.67° C | 52% | 1022 hPa | 0 mm | - | 240 W/m² | - |
| 1777816448 | 21.11° C | 52% | 1021.9 hPa | 0 mm | - | 224 W/m² | - |
| 1777816145 | 21.11° C | 54% | 1021.9 hPa | 0 mm | - | 211 W/m² | - |
| 1777815843 | 21.11° C | 52% | 1022 hPa | 0 mm | - | 197 W/m² | - |
| 1777815540 | 20.56° C | 55% | 1022 hPa | 0 mm | - | 184 W/m² | - |
| 1777815237 | 20° C | 56% | 1021.7 hPa | 0 mm | - | 171 W/m² | - |
* Rain latest hour (hover to see other rain measurements)
** Current wind speed in m/s (hover to see current wind gust speed)